This demonstration page uses our WeatherBlox Daily Observations layout. Learn more.

Left ArrowRight Arrow

Hourly Observations for June 23, 2021

Temp ( °F °C ) Dew Point ( °F °C ) Humidity (%) Winds ( mph kmh ) Pressure ( in mb ) Visibility ( mi km ) Precip ( " mm )
12:53 am 00:53 Clear 63 17.2 61 16.1 93 93 Calm 30.02 1017 10 16 0.00 0.00
1:53 am 01:53 Clear 63 17.2 61 16.1 93 93 Calm 30.03 1017 10 16 0.00 0.00
2:53 am 02:53 Clear 62 16.7 60 15.6 93 93 Calm 30.02 1017 10 16 0.00 0.00
3:53 am 03:53 Clear 62 16.7 61 16.1 96 96 Calm 30.02 1017 10 16 0.00 0.00
4:53 am 04:53 Clear 60 15.6 57 13.9 90 90 Calm 30.03 1017 10 16 0.00 0.00
5:53 am 05:53 Clear 59 15 57 13.9 93 93 Calm 30.04 1017 10 16 0.00 0.00
6:53 am 06:53 Sunny 59 15 59 15 100 100 Calm 30.06 1018 10 16 0.00 0.00
7:53 am 07:53 Sunny 63 17.2 60 15.6 90 90 Calm 30.08 1019 10 16 0.00 0.00
8:53 am 08:53 Sunny 68 20 61 16.1 78 78 Calm 30.10 1019 10 16 0.00 0.00
9:53 am 09:53 Sunny 72 22.2 61 16.1 68 68 VRB 5 7 30.10 1019 10 16 0.00 0.00
10:53 am 10:53 Sunny 75 23.9 63 17.2 66 66 VRB 5 7 30.10 1019 10 16 0.00 0.00
11:53 am 11:53 Sunny 78 25.6 62 16.7 58 58 NNE 5 7 30.11 1020 10 16 0.00 0.00
12:53 pm 12:53 Mostly Sunny 80 26.7 60 15.6 51 51 VRB 3 6 30.10 1019 10 16 0.00 0.00
1:53 pm 13:53 Partly Cloudy 82 27.8 61 16.1 49 49 undefined N/A 30.09 1019 10 16 0.00 0.00
2:53 pm 14:53 Sunny 83 28.3 57 13.9 41 41 VRB 3 6 30.08 1019 10 16 0.00 0.00
3:53 pm 15:53 Sunny 84 28.9 53 11.7 34 34 VRB 3 6 30.08 1019 10 16 0.00 0.00
4:53 pm 16:53 Mostly Sunny 84 28.9 56 13.3 38 38 ENE 5 7 30.08 1019 10 16 0.00 0.00
5:53 pm 17:53 Sunny 84 28.9 56 13.3 38 38 VRB 6 9 30.08 1019 10 16 0.00 0.00
6:53 pm 18:53 Partly Cloudy 84 28.9 58 14.4 41 41 E 9 15 30.09 1019 10 16 0.00 0.00
7:53 pm 19:53 Sunny 82 27.8 59 15 46 46 ESE 5 7 30.09 1019 10 16 0.00 0.00
8:53 pm 20:53 Clear 80 26.7 59 15 49 49 E 3 6 30.11 1020 10 16 0.00 0.00
9:53 pm 21:53 Clear 78 25.6 60 15.6 54 54 E 6 9 30.12 1020 10 16 0.00 0.00
10:53 pm 22:53 Clear 77 25 61 16.1 58 58 E 6 9 30.14 1021 10 16 0.00 0.00
11:53 pm 23:53 Partly Cloudy 76 24.4 60 15.6 58 58 E 6 9 30.14 1021 10 16 0.00 0.00

Powered by AerisWeather